Time,TemperatureF,DewpointF,PressureIn,WindDirection,WindDirectionDegrees,WindSpeedMPH,WindSpeedGustMPH,Humidity,HourlyPrecipIn,Conditions,Clouds,dailyrainin,SoftwareType,DateUTC
2013-09-18 00:02:00,58.3,39.7,30.01,SSW,208,4.0,4.0,50,0.00,,---,0.00,VWS V13.01,2013-09-18 05:02:00,
2013-09-18 00:08:00,58.3,40.2,30.01,SSW,195,3.1,4.0,51,0.00,,---,0.00,VWS V13.01,2013-09-18 05:08:00,
2013-09-18 00:13:00,58.1,40.1,30.01,SSW,195,3.1,3.1,51,0.00,,---,0.00,VWS V13.01,2013-09-18 05:13:00,
2013-09-18 00:18:00,58.1,40.6,30.01,SSW,193,3.6,3.6,52,0.00,,---,0.00,VWS V13.01,2013-09-18 05:18:00,
2013-09-18 00:23:00,58.1,41.1,30.01,South,170,3.1,4.7,53,0.00,,---,0.00,VWS V13.01,2013-09-18 05:23:00,
2013-09-18 00:28:00,58.1,41.1,30.01,SSE,166,3.6,4.5,53,0.00,,---,0.00,VWS V13.01,2013-09-18 05:28:00,
2013-09-18 00:31:00,58.1,41.1,30.01,SSW,192,4.0,4.7,53,0.00,,---,0.00,VWS V13.01,2013-09-18 05:31:00,
2013-09-18 00:36:00,58.1,41.1,30.01,SSW,192,3.6,3.6,53,0.00,,---,0.00,VWS V13.01,2013-09-18 05:36:00,
2013-09-18 00:41:00,58.1,41.6,30.01,South,187,3.1,3.1,54,0.00,,---,0.00,VWS V13.01,2013-09-18 05:41:00,
2013-09-18 00:46:00,58.1,41.6,30.01,SW,223,3.1,3.6,54,0.00,,---,0.00,VWS V13.01,2013-09-18 05:46:00,
2013-09-18 00:51:00,58.1,41.6,30.01,SW,223,3.6,4.5,54,0.00,,---,0.00,VWS V13.01,2013-09-18 05:51:00,
2013-09-18 00:56:00,58.1,42.0,30.01,SW,223,0.0,0.0,55,0.00,,---,0.00,VWS V13.01,2013-09-18 05:56:00,
2013-09-18 01:01:00,58.1,42.5,30.01,South,172,3.6,3.6,56,0.00,,---,0.00,VWS V13.01,2013-09-18 06:01:00,
2013-09-18 01:06:00,58.1,42.5,30.01,SSW,195,3.1,3.6,56,0.00,,---,0.00,VWS V13.01,2013-09-18 06:06:00,
2013-09-18 01:12:00,58.1,42.5,30.01,SSW,212,3.1,4.5,56,0.00,,---,0.00,VWS V13.01,2013-09-18 06:12:00,
2013-09-18 01:17:00,58.1,43.0,30.01,SSW,212,3.1,4.0,57,0.00,,---,0.00,VWS V13.01,2013-09-18 06:17:00,
2013-09-18 01:22:00,58.1,43.0,30.01,SSW,212,0.0,0.0,57,0.00,,---,0.00,VWS V13.01,2013-09-18 06:22:00,
2013-09-18 01:27:00,58.1,43.4,30.01,SW,222,3.6,5.1,58,0.00,,---,0.00,VWS V13.01,2013-09-18 06:27:00,
2013-09-18 01:32:00,58.3,43.6,30.01,SW,222,3.1,4.5,58,0.00,,---,0.00,VWS V13.01,2013-09-18 06:32:00,
2013-09-18 01:37:00,58.3,44.0,30.01,SW,222,4.0,4.0,59,0.00,,---,0.00,VWS V13.01,2013-09-18 06:37:00,
2013-09-18 01:42:00,58.3,44.0,29.98,SW,222,4.0,4.0,59,0.00,,---,0.00,VWS V13.01,2013-09-18 06:42:00,
2013-09-18 01:47:00,58.3,44.0,29.98,SW,222,4.0,4.0,59,0.00,,---,0.00,VWS V13.01,2013-09-18 06:47:00,
2013-09-18 01:52:00,58.3,44.5,29.98,SW,222,3.6,3.6,60,0.00,,---,0.00,VWS V13.01,2013-09-18 06:52:00,
2013-09-18 01:57:00,58.3,44.5,29.98,SW,222,3.6,4.0,60,0.00,,---,0.00,VWS V13.01,2013-09-18 06:57:00,
2013-09-18 02:03:00,58.3,44.5,29.98,SW,222,2.7,3.6,60,0.00,,---,0.00,VWS V13.01,2013-09-18 07:03:00,
2013-09-18 02:08:00,58.3,44.5,29.98,SW,222,0.0,4.5,60,0.00,,---,0.00,VWS V13.01,2013-09-18 07:08:00,
2013-09-18 02:13:00,58.3,44.9,29.98,SW,222,2.7,3.6,61,0.00,,---,0.00,VWS V13.01,2013-09-18 07:13:00,
2013-09-18 02:18:00,58.3,44.9,29.98,SW,222,3.6,3.6,61,0.00,,---,0.00,VWS V13.01,2013-09-18 07:18:00,
2013-09-18 02:23:00,58.1,44.7,29.98,SW,222,2.7,4.5,61,0.00,,---,0.00,VWS V13.01,2013-09-18 07:23:00,
2013-09-18 02:28:00,58.1,45.2,29.98,SW,222,4.0,4.0,62,0.00,,---,0.00,VWS V13.01,2013-09-18 07:28:00,
2013-09-18 02:33:00,58.1,45.2,29.98,SW,222,4.0,4.0,62,0.00,,---,0.00,VWS V13.01,2013-09-18 07:33:00,
2013-09-18 02:38:00,58.1,45.6,29.98,SW,222,3.1,3.1,63,0.00,,---,0.00,VWS V13.01,2013-09-18 07:38:00,
2013-09-18 02:43:00,58.1,45.6,29.98,SW,222,4.0,4.0,63,0.00,,---,0.00,VWS V13.01,2013-09-18 07:43:00,
2013-09-18 02:48:00,57.9,45.8,29.98,SW,222,0.0,4.0,64,0.00,,---,0.00,VWS V13.01,2013-09-18 07:48:00,
2013-09-18 02:54:00,57.9,45.8,29.98,SW,222,3.6,3.6,64,0.00,,---,0.00,VWS V13.01,2013-09-18 07:54:00,
2013-09-18 02:59:00,57.9,45.8,29.96,SW,222,0.0,0.0,64,0.00,,---,0.00,VWS V13.01,2013-09-18 07:59:00,
2013-09-18 03:04:00,57.9,46.2,29.96,SW,222,4.5,4.5,65,0.00,,---,0.00,VWS V13.01,2013-09-18 08:04:00,
2013-09-18 03:09:00,57.9,46.2,29.96,SW,222,4.0,4.0,65,0.00,,---,0.00,VWS V13.01,2013-09-18 08:09:00,
2013-09-18 03:14:00,57.9,46.6,29.96,SW,222,3.6,4.5,66,0.00,,---,0.00,VWS V13.01,2013-09-18 08:14:00,
2013-09-18 03:19:00,57.9,46.6,29.96,SW,222,3.1,3.6,66,0.00,,---,0.00,VWS V13.01,2013-09-18 08:19:00,
2013-09-18 03:24:00,57.7,46.9,29.96,SW,222,3.1,3.1,67,0.00,,---,0.00,VWS V13.01,2013-09-18 08:24:00,
2013-09-18 03:29:00,57.6,46.7,29.96,SW,222,0.0,2.7,67,0.00,,---,0.00,VWS V13.01,2013-09-18 08:29:00,
2013-09-18 03:34:00,57.4,46.9,29.96,SW,222,0.0,0.0,68,0.00,,---,0.00,VWS V13.01,2013-09-18 08:34:00,
2013-09-18 03:39:00,57.2,46.8,29.96,SW,222,0.0,0.0,68,0.00,,---,0.00,VWS V13.01,2013-09-18 08:39:00,
2013-09-18 03:44:00,57.2,47.1,29.96,SW,222,0.0,0.0,69,0.00,,---,0.00,VWS V13.01,2013-09-18 08:44:00,
2013-09-18 03:50:00,57.0,47.3,29.96,SW,222,0.0,0.0,70,0.00,,---,0.00,VWS V13.01,2013-09-18 08:50:00,
2013-09-18 03:55:00,56.8,47.2,29.96,SW,222,0.0,0.0,70,0.00,,---,0.00,VWS V13.01,2013-09-18 08:55:00,
2013-09-18 04:00:00,56.8,47.5,29.96,SW,222,0.0,0.0,71,0.00,,---,0.00,VWS V13.01,2013-09-18 09:00:00,
2013-09-18 04:05:00,56.8,47.5,29.96,SW,222,0.0,0.0,71,0.00,,---,0.00,VWS V13.01,2013-09-18 09:05:00,
2013-09-18 04:10:00,56.8,47.9,29.96,SW,222,0.0,0.0,72,0.00,,---,0.00,VWS V13.01,2013-09-18 09:10:00,
2013-09-18 04:15:00,56.8,47.9,29.96,SW,222,0.0,0.0,72,0.00,,---,0.00,VWS V13.01,2013-09-18 09:15:00,
2013-09-18 04:20:00,56.7,47.8,29.96,SW,222,0.0,0.0,72,0.00,,---,0.00,VWS V13.01,2013-09-18 09:20:00,
2013-09-18 04:25:00,56.7,48.1,29.96,SW,222,0.0,0.0,73,0.00,,---,0.00,VWS V13.01,2013-09-18 09:25:00,
2013-09-18 04:30:00,56.7,48.1,29.96,SW,222,0.0,0.0,73,0.00,,---,0.00,VWS V13.01,2013-09-18 09:30:00,
2013-09-18 04:35:00,56.8,48.3,29.96,SW,222,0.0,0.0,73,0.00,,---,0.00,VWS V13.01,2013-09-18 09:35:00,
2013-09-18 04:40:00,56.8,48.7,29.96,SW,222,0.0,0.0,74,0.00,,---,0.00,VWS V13.01,2013-09-18 09:40:00,
2013-09-18 04:45:00,56.8,48.7,29.96,SW,222,0.0,0.0,74,0.00,,---,0.00,VWS V13.01,2013-09-18 09:45:00,
2013-09-18 04:50:00,56.8,49.0,29.96,SW,222,0.0,0.0,75,0.00,,---,0.00,VWS V13.01,2013-09-18 09:50:00,
2013-09-18 04:55:00,56.8,49.0,29.96,SW,222,0.0,0.0,75,0.00,,---,0.00,VWS V13.01,2013-09-18 09:55:00,
2013-09-18 05:00:00,56.8,49.0,29.96,SW,222,0.0,0.0,75,0.00,,---,0.00,VWS V13.01,2013-09-18 10:00:00,
2013-09-18 05:05:00,57.0,49.5,29.96,SW,222,0.0,0.0,76,0.00,,---,0.00,VWS V13.01,2013-09-18 10:05:00,
2013-09-18 05:10:00,57.0,49.5,29.96,SW,222,0.0,0.0,76,0.00,,---,0.00,VWS V13.01,2013-09-18 10:10:00,
2013-09-18 05:15:00,57.0,49.5,29.96,SW,222,0.0,0.0,76,0.00,,---,0.00,VWS V13.01,2013-09-18 10:15:00,
2013-09-18 05:20:00,57.0,49.9,29.96,SW,222,0.0,0.0,77,0.00,,---,0.00,VWS V13.01,2013-09-18 10:20:00,
2013-09-18 05:25:00,57.0,49.9,29.96,SW,222,0.0,0.0,77,0.00,,---,0.00,VWS V13.01,2013-09-18 10:25:00,
2013-09-18 05:30:00,57.2,50.1,29.96,SW,222,0.0,0.0,77,0.00,,---,0.00,VWS V13.01,2013-09-18 10:30:00,
2013-09-18 05:35:00,57.2,50.4,29.96,SW,222,0.0,0.0,78,0.00,,---,0.00,VWS V13.01,2013-09-18 10:35:00,
2013-09-18 05:41:00,57.2,50.4,29.96,SW,222,0.0,0.0,78,0.00,,---,0.00,VWS V13.01,2013-09-18 10:41:00,
2013-09-18 05:46:00,57.2,50.4,29.93,SW,222,0.0,0.0,78,0.00,,---,0.00,VWS V13.01,2013-09-18 10:46:00,
2013-09-18 05:51:00,57.2,50.8,29.93,SW,222,0.0,0.0,79,0.00,,---,0.00,VWS V13.01,2013-09-18 10:51:00,
2013-09-18 05:56:00,57.2,50.8,29.93,SW,222,0.0,0.0,79,0.00,,---,0.00,VWS V13.01,2013-09-18 10:56:00,
2013-09-18 06:01:00,57.2,50.8,29.93,SW,222,0.0,0.0,79,0.00,,---,0.00,VWS V13.01,2013-09-18 11:01:00,
2013-09-18 06:06:00,57.2,50.8,29.93,SW,222,0.0,0.0,79,0.00,,---,0.00,VWS V13.01,2013-09-18 11:06:00,
2013-09-18 06:11:00,57.2,51.1,29.93,SW,222,0.0,0.0,80,0.04,,---,0.04,VWS V13.01,2013-09-18 11:11:00,
2013-09-18 06:16:00,57.2,51.1,29.93,SW,222,0.0,0.0,80,0.04,,---,0.04,VWS V13.01,2013-09-18 11:16:00,
2013-09-18 06:21:00,57.2,51.1,29.93,SW,222,0.0,0.0,80,0.04,,---,0.04,VWS V13.01,2013-09-18 11:21:00,
2013-09-18 06:26:00,57.2,51.1,29.93,SW,222,0.0,0.0,80,0.04,,---,0.04,VWS V13.01,2013-09-18 11:26:00,
2013-09-18 06:31:00,57.2,51.4,29.93,SW,222,0.0,0.0,81,0.04,,---,0.04,VWS V13.01,2013-09-18 11:31:00,
2013-09-18 06:36:00,57.2,51.4,29.93,SW,222,0.0,0.0,81,0.04,,---,0.04,VWS V13.01,2013-09-18 11:36:00,
2013-09-18 06:41:00,57.2,51.4,29.93,SW,222,0.0,0.0,81,0.04,,---,0.04,VWS V13.01,2013-09-18 11:41:00,
2013-09-18 06:46:00,57.2,51.4,29.93,SW,222,0.0,0.0,81,0.04,,---,0.04,VWS V13.01,2013-09-18 11:46:00,
2013-09-18 06:51:00,57.2,51.4,29.93,SW,222,0.0,0.0,81,0.04,,---,0.04,VWS V13.01,2013-09-18 11:51:00,
2013-09-18 06:56:00,57.2,51.4,29.93,SW,222,0.0,0.0,81,0.04,,---,0.04,VWS V13.01,2013-09-18 11:56:00,
2013-09-18 07:01:00,57.4,51.6,29.93,SW,222,0.0,0.0,81,0.04,,---,0.04,VWS V13.01,2013-09-18 12:01:00,
2013-09-18 07:06:00,57.4,51.9,29.93,SW,222,0.0,0.0,82,0.04,,---,0.04,VWS V13.01,2013-09-18 12:06:00,
2013-09-18 07:11:00,57.4,51.9,29.93,SW,222,0.0,0.0,82,0.00,,---,0.04,VWS V13.01,2013-09-18 12:11:00,
2013-09-18 07:16:00,57.4,51.9,29.93,SW,222,0.0,0.0,82,0.00,,---,0.04,VWS V13.01,2013-09-18 12:16:00,
2013-09-18 07:21:00,57.6,52.1,29.93,SW,222,0.0,0.0,82,0.00,,---,0.04,VWS V13.01,2013-09-18 12:21:00,
2013-09-18 07:26:00,57.6,52.1,29.93,SW,222,0.0,0.0,82,0.00,,---,0.04,VWS V13.01,2013-09-18 12:26:00,
2013-09-18 07:32:00,57.6,52.1,29.93,SW,222,0.0,0.0,82,0.00,,---,0.04,VWS V13.01,2013-09-18 12:32:00,
2013-09-18 07:37:00,57.6,52.4,29.93,SW,222,0.0,0.0,83,0.00,,---,0.04,VWS V13.01,2013-09-18 12:37:00,
2013-09-18 07:42:00,57.6,52.4,29.93,SW,222,0.0,0.0,83,0.00,,---,0.04,VWS V13.01,2013-09-18 12:42:00,
2013-09-18 07:47:00,57.7,52.6,29.93,SW,222,0.0,0.0,83,0.00,,---,0.04,VWS V13.01,2013-09-18 12:47:00,
2013-09-18 07:52:00,57.7,52.6,29.93,SW,222,0.0,0.0,83,0.00,,---,0.04,VWS V13.01,2013-09-18 12:52:00,
2013-09-18 07:57:00,57.7,52.6,29.93,SW,222,0.0,0.0,83,0.00,,---,0.04,VWS V13.01,2013-09-18 12:57:00,
2013-09-18 08:02:00,57.9,52.8,29.93,SW,222,0.0,0.0,83,0.00,,---,0.04,VWS V13.01,2013-09-18 13:02:00,
2013-09-18 08:07:00,57.9,52.8,29.93,SW,222,0.0,0.0,83,0.00,,---,0.04,VWS V13.01,2013-09-18 13:07:00,
2013-09-18 08:12:00,57.9,52.8,29.93,SW,222,0.0,0.0,83,0.00,,---,0.04,VWS V13.01,2013-09-18 13:12:00,
2013-09-18 08:17:00,57.9,53.1,29.93,SW,222,0.0,0.0,84,0.00,,---,0.04,VWS V13.01,2013-09-18 13:17:00,
2013-09-18 08:22:00,57.9,53.1,29.93,SW,222,0.0,0.0,84,0.00,,---,0.04,VWS V13.01,2013-09-18 13:22:00,
2013-09-18 08:27:00,58.1,53.3,29.93,SW,222,0.0,0.0,84,0.00,,---,0.04,VWS V13.01,2013-09-18 13:27:00,
2013-09-18 08:32:00,58.1,53.3,29.93,SW,222,0.0,0.0,84,0.00,,---,0.04,VWS V13.01,2013-09-18 13:32:00,
2013-09-18 08:37:00,58.1,53.3,29.93,SW,222,0.0,0.0,84,0.00,,---,0.04,VWS V13.01,2013-09-18 13:37:00,
2013-09-18 08:42:00,58.3,53.5,29.93,SW,222,0.0,0.0,84,0.00,,---,0.04,VWS V13.01,2013-09-18 13:42:00,
2013-09-18 08:48:00,58.5,53.7,29.93,SW,222,0.0,0.0,84,0.00,,---,0.04,VWS V13.01,2013-09-18 13:48:00,
2013-09-18 08:53:00,58.5,53.7,29.93,SW,222,0.0,0.0,84,0.00,,---,0.04,VWS V13.01,2013-09-18 13:53:00,
2013-09-18 08:58:00,58.6,53.8,29.93,SW,222,0.0,0.0,84,0.00,,---,0.04,VWS V13.01,2013-09-18 13:58:00,
2013-09-18 09:03:00,58.8,54.0,29.93,SW,222,0.0,0.0,84,0.00,,---,0.04,VWS V13.01,2013-09-18 14:03:00,
2013-09-18 09:08:00,58.8,54.0,29.93,SW,222,0.0,0.0,84,0.00,,---,0.04,VWS V13.01,2013-09-18 14:08:00,
2013-09-18 09:13:00,58.8,54.3,29.93,SW,222,0.0,0.0,85,0.00,,---,0.04,VWS V13.01,2013-09-18 14:13:00,
2013-09-18 09:18:00,58.8,54.3,29.93,SW,222,0.0,0.0,85,0.00,,---,0.04,VWS V13.01,2013-09-18 14:18:00,
2013-09-18 09:23:00,59.0,54.2,29.93,SW,222,0.0,0.0,84,0.00,,---,0.04,VWS V13.01,2013-09-18 14:23:00,
2013-09-18 09:28:00,59.2,54.7,29.93,SW,222,0.0,0.0,85,0.00,,---,0.04,VWS V13.01,2013-09-18 14:28:00,
2013-09-18 09:33:00,59.2,54.7,29.93,SW,222,0.0,0.0,85,0.00,,---,0.04,VWS V13.01,2013-09-18 14:33:00,
2013-09-18 09:38:00,59.2,54.7,29.93,SW,222,0.0,0.0,85,0.00,,---,0.04,VWS V13.01,2013-09-18 14:38:00,
2013-09-18 09:43:00,59.2,54.7,29.93,SW,222,0.0,0.0,85,0.00,,---,0.04,VWS V13.01,2013-09-18 14:43:00,
2013-09-18 09:48:00,59.2,54.7,29.93,SW,222,0.0,0.0,85,0.00,,---,0.04,VWS V13.01,2013-09-18 14:48:00,
2013-09-18 09:53:00,59.2,54.7,29.93,SW,222,0.0,0.0,85,0.00,,---,0.04,VWS V13.01,2013-09-18 14:53:00,
2013-09-18 09:58:00,59.2,54.7,29.93,SW,222,0.0,0.0,85,0.00,,---,0.04,VWS V13.01,2013-09-18 14:58:00,
2013-09-18 10:04:00,59.2,54.7,29.93,SW,222,0.0,0.0,85,0.00,,---,0.04,VWS V13.01,2013-09-18 15:04:00,
2013-09-18 10:09:00,59.2,54.7,29.93,SW,222,0.0,0.0,85,0.00,,---,0.04,VWS V13.01,2013-09-18 15:09:00,
2013-09-18 10:14:00,59.2,54.7,29.93,SW,222,0.0,0.0,85,0.00,,---,0.04,VWS V13.01,2013-09-18 15:14:00,
2013-09-18 10:19:00,59.4,54.9,29.93,SW,222,0.0,0.0,85,0.00,,---,0.04,VWS V13.01,2013-09-18 15:19:00,
2013-09-18 10:24:00,59.4,55.2,29.93,SW,222,0.0,0.0,86,0.00,,---,0.04,VWS V13.01,2013-09-18 15:24:00,
2013-09-18 10:29:00,59.4,55.2,29.93,SW,222,0.0,0.0,86,0.00,,---,0.04,VWS V13.01,2013-09-18 15:29:00,
2013-09-18 10:34:00,59.5,55.3,29.93,SW,222,0.0,0.0,86,0.00,,---,0.04,VWS V13.01,2013-09-18 15:34:00,
2013-09-18 10:39:00,59.7,55.5,29.93,SW,222,0.0,0.0,86,0.00,,---,0.04,VWS V13.01,2013-09-18 15:39:00,
2013-09-18 10:44:00,59.7,55.5,29.93,SW,222,0.0,0.0,86,0.00,,---,0.04,VWS V13.01,2013-09-18 15:44:00,
2013-09-18 10:49:00,60.1,55.9,29.93,SW,222,0.0,0.0,86,0.00,,---,0.04,VWS V13.01,2013-09-18 15:49:00,
2013-09-18 10:54:00,60.3,56.1,29.93,SW,222,0.0,0.0,86,0.00,,---,0.04,VWS V13.01,2013-09-18 15:54:00,
2013-09-18 10:59:00,60.4,56.2,29.93,SW,222,0.0,0.0,86,0.00,,---,0.04,VWS V13.01,2013-09-18 15:59:00,
2013-09-18 11:01:00,60.6,56.7,29.93,SW,222,0.0,0.0,87,0.00,,---,0.04,VWS V13.01,2013-09-18 16:01:00,
2013-09-18 11:06:00,60.8,56.6,29.93,SW,222,0.0,0.0,86,0.00,,---,0.04,VWS V13.01,2013-09-18 16:06:00,
2013-09-18 11:11:00,61.0,56.8,29.93,SW,222,0.0,0.0,86,0.00,,---,0.04,VWS V13.01,2013-09-18 16:11:00,
2013-09-18 11:16:00,61.0,56.8,29.90,SW,222,0.0,0.0,86,0.00,,---,0.04,VWS V13.01,2013-09-18 16:16:00,
2013-09-18 11:21:00,61.0,56.8,29.90,SW,222,0.0,0.0,86,0.00,,---,0.04,VWS V13.01,2013-09-18 16:21:00,
2013-09-18 11:26:00,61.2,57.0,29.90,SW,222,0.0,0.0,86,0.00,,---,0.04,VWS V13.01,2013-09-18 16:26:00,
2013-09-18 11:31:00,61.2,57.0,29.90,SW,222,0.0,0.0,86,0.00,,---,0.04,VWS V13.01,2013-09-18 16:31:00,
2013-09-18 11:36:00,61.3,57.1,29.90,SW,222,0.0,0.0,86,0.00,,---,0.04,VWS V13.01,2013-09-18 16:36:00,
2013-09-18 11:41:00,61.3,57.4,29.90,SW,222,0.0,0.0,87,0.00,,---,0.04,VWS V13.01,2013-09-18 16:41:00,
2013-09-18 11:46:00,61.7,57.8,29.90,SW,222,0.0,0.0,87,0.00,,---,0.04,VWS V13.01,2013-09-18 16:46:00,
2013-09-18 11:51:00,62.1,58.2,29.90,SW,222,0.0,0.0,87,0.00,,---,0.04,VWS V13.01,2013-09-18 16:51:00,
2013-09-18 11:56:00,62.2,58.3,29.90,SW,222,0.0,0.0,87,0.00,,---,0.04,VWS V13.01,2013-09-18 16:56:00,
2013-09-18 12:01:00,62.6,58.7,29.90,SW,222,0.0,0.0,87,0.00,,---,0.04,VWS V13.01,2013-09-18 17:01:00,
2013-09-18 12:06:00,62.6,58.7,29.90,SW,222,0.0,0.0,87,0.00,,---,0.04,VWS V13.01,2013-09-18 17:06:00,
2013-09-18 12:11:00,62.8,58.9,29.90,SW,222,0.0,0.0,87,0.00,,---,0.04,VWS V13.01,2013-09-18 17:11:00,
2013-09-18 12:16:00,62.8,58.9,29.87,SW,222,0.0,0.0,87,0.00,,---,0.04,VWS V13.01,2013-09-18 17:16:00,
2013-09-18 12:21:00,62.8,58.9,29.87,SW,222,0.0,0.0,87,0.00,,---,0.04,VWS V13.01,2013-09-18 17:21:00,
2013-09-18 12:26:00,63.0,59.0,29.87,SW,222,0.0,0.0,87,0.00,,---,0.04,VWS V13.01,2013-09-18 17:26:00,
2013-09-18 12:32:00,63.1,59.2,29.87,SW,222,0.0,0.0,87,0.00,,---,0.04,VWS V13.01,2013-09-18 17:32:00,
2013-09-18 12:37:00,63.1,59.2,29.87,SW,222,0.0,0.0,87,0.00,,---,0.04,VWS V13.01,2013-09-18 17:37:00,
2013-09-18 12:42:00,63.3,59.4,29.87,SW,222,0.0,0.0,87,0.00,,---,0.04,VWS V13.01,2013-09-18 17:42:00,
2013-09-18 12:47:00,63.5,59.6,29.87,SW,222,0.0,0.0,87,0.00,,---,0.04,VWS V13.01,2013-09-18 17:47:00,
2013-09-18 12:52:00,63.7,59.7,29.87,SW,222,0.0,0.0,87,0.00,,---,0.04,VWS V13.01,2013-09-18 17:52:00,
2013-09-18 12:57:00,63.9,59.9,29.87,SW,222,0.0,0.0,87,0.00,,---,0.04,VWS V13.01,2013-09-18 17:57:00,
2013-09-18 13:02:00,63.9,59.9,29.87,SW,222,0.0,0.0,87,0.00,,---,0.04,VWS V13.01,2013-09-18 18:02:00,
2013-09-18 13:08:00,63.9,59.6,29.87,SW,222,0.0,0.0,86,0.00,,---,0.04,VWS V13.01,2013-09-18 18:08:00,
2013-09-18 13:13:00,64.0,59.8,29.87,SW,222,0.0,0.0,86,0.00,,---,0.04,VWS V13.01,2013-09-18 18:13:00,
2013-09-18 13:18:00,64.0,59.8,29.87,SW,222,0.0,0.0,86,0.00,,---,0.04,VWS V13.01,2013-09-18 18:18:00,
2013-09-18 13:23:00,64.0,59.8,29.87,SW,222,0.0,0.0,86,0.00,,---,0.04,VWS V13.01,2013-09-18 18:23:00,
2013-09-18 13:28:00,64.0,59.5,29.87,SW,222,0.0,0.0,85,0.00,,---,0.04,VWS V13.01,2013-09-18 18:28:00,
2013-09-18 13:33:00,64.0,59.5,29.87,SW,222,0.0,0.0,85,0.00,,---,0.04,VWS V13.01,2013-09-18 18:33:00,
2013-09-18 13:38:00,64.0,59.5,29.87,SW,222,0.0,0.0,85,0.00,,---,0.04,VWS V13.01,2013-09-18 18:38:00,
2013-09-18 13:43:00,63.9,59.3,29.87,SW,222,0.0,0.0,85,0.00,,---,0.04,VWS V13.01,2013-09-18 18:43:00,
2013-09-18 13:48:00,64.0,59.5,29.87,SW,222,0.0,0.0,85,0.00,,---,0.04,VWS V13.01,2013-09-18 18:48:00,
2013-09-18 13:53:00,64.0,59.1,29.87,SW,222,0.0,0.0,84,0.00,,---,0.04,VWS V13.01,2013-09-18 18:53:00,
2013-09-18 13:58:00,64.0,59.1,29.87,SW,222,0.0,0.0,84,0.00,,---,0.04,VWS V13.01,2013-09-18 18:58:00,
2013-09-18 14:03:00,64.0,59.1,29.87,SW,222,0.0,0.0,84,0.00,,---,0.04,VWS V13.01,2013-09-18 19:03:00,
2013-09-18 14:08:00,64.0,59.1,29.87,SW,222,0.0,0.0,84,0.00,,---,0.04,VWS V13.01,2013-09-18 19:08:00,
2013-09-18 14:13:00,64.2,59.3,29.87,SW,222,0.0,0.0,84,0.00,,---,0.04,VWS V13.01,2013-09-18 19:13:00,
2013-09-18 14:19:00,64.2,59.3,29.87,SW,222,0.0,0.0,84,0.00,,---,0.04,VWS V13.01,2013-09-18 19:19:00,
2013-09-18 14:24:00,64.2,59.3,29.87,SW,222,0.0,0.0,84,0.00,,---,0.04,VWS V13.01,2013-09-18 19:24:00,
2013-09-18 14:29:00,64.4,59.1,29.87,SW,222,0.0,0.0,83,0.00,,---,0.04,VWS V13.01,2013-09-18 19:29:00,
2013-09-18 14:34:00,64.4,59.1,29.87,SW,222,0.0,0.0,83,0.00,,---,0.04,VWS V13.01,2013-09-18 19:34:00,
2013-09-18 14:39:00,64.4,59.1,29.87,SW,222,2.7,4.0,83,0.00,,---,0.04,VWS V13.01,2013-09-18 19:39:00,
2013-09-18 14:44:00,64.4,59.1,29.87,SW,222,2.7,4.0,83,0.00,,---,0.04,VWS V13.01,2013-09-18 19:44:00,
2013-09-18 14:49:00,64.4,59.1,29.87,SW,222,0.0,0.0,83,0.00,,---,0.04,VWS V13.01,2013-09-18 19:49:00,
2013-09-18 14:54:00,64.4,58.8,29.87,SW,222,3.1,3.1,82,0.00,,---,0.04,VWS V13.01,2013-09-18 19:54:00,
2013-09-18 14:59:00,64.4,58.8,29.87,SW,222,3.6,3.6,82,0.00,,---,0.04,VWS V13.01,2013-09-18 19:59:00,
2013-09-18 15:04:00,64.4,58.8,29.87,SSW,193,3.1,3.1,82,0.00,,---,0.04,VWS V13.01,2013-09-18 20:04:00,
2013-09-18 15:09:00,64.4,58.5,29.87,South,185,2.7,3.6,81,0.00,,---,0.04,VWS V13.01,2013-09-18 20:09:00,
2013-09-18 15:14:00,64.2,58.3,29.84,South,185,0.0,4.0,81,0.00,,---,0.04,VWS V13.01,2013-09-18 20:14:00,
2013-09-18 15:19:00,64.2,57.9,29.84,SE,146,3.1,4.5,80,0.00,,---,0.04,VWS V13.01,2013-09-18 20:19:00,
2013-09-18 15:24:00,64.0,57.8,29.84,SE,146,3.1,4.0,80,0.00,,---,0.04,VWS V13.01,2013-09-18 20:24:00,
2013-09-18 15:29:00,64.0,57.4,29.84,SE,146,0.0,0.0,79,0.00,,---,0.04,VWS V13.01,2013-09-18 20:29:00,
2013-09-18 15:34:00,64.0,57.4,29.84,SW,229,3.1,4.0,79,0.00,,---,0.04,VWS V13.01,2013-09-18 20:34:00,
2013-09-18 15:39:00,64.0,57.0,29.84,SW,230,0.0,0.0,78,0.00,,---,0.04,VWS V13.01,2013-09-18 20:39:00,
2013-09-18 15:44:00,63.9,56.9,29.84,SW,230,2.7,3.6,78,0.00,,---,0.04,VWS V13.01,2013-09-18 20:44:00,
2013-09-18 15:50:00,63.9,56.9,29.84,SW,229,0.0,0.0,78,0.00,,---,0.04,VWS V13.01,2013-09-18 20:50:00,
2013-09-18 15:55:00,63.9,56.5,29.84,SW,229,0.0,0.0,77,0.00,,---,0.04,VWS V13.01,2013-09-18 20:55:00,
2013-09-18 16:00:00,63.9,56.5,29.84,SW,229,0.0,0.0,77,0.00,,---,0.04,VWS V13.01,2013-09-18 21:00:00,
2013-09-18 16:05:00,63.9,56.5,29.84,SW,229,0.0,0.0,77,0.00,,---,0.04,VWS V13.01,2013-09-18 21:05:00,
2013-09-18 16:10:00,63.9,56.5,29.84,SW,230,0.0,0.0,77,0.00,,---,0.04,VWS V13.01,2013-09-18 21:10:00,
2013-09-18 16:16:00,63.9,56.5,29.84,SW,229,0.0,0.0,77,0.00,,---,0.04,VWS V13.01,2013-09-18 21:16:00,
2013-09-18 16:21:00,63.9,56.5,29.84,SW,229,0.0,0.0,77,0.00,,---,0.04,VWS V13.01,2013-09-18 21:21:00,
2013-09-18 16:26:00,63.9,56.5,29.84,SW,229,0.0,0.0,77,0.00,,---,0.04,VWS V13.01,2013-09-18 21:26:00,
2013-09-18 16:31:00,63.9,56.5,29.84,SW,229,0.0,0.0,77,0.00,,---,0.04,VWS V13.01,2013-09-18 21:31:00,
2013-09-18 16:36:00,63.9,56.5,29.84,SW,229,0.0,0.0,77,0.00,,---,0.04,VWS V13.01,2013-09-18 21:36:00,
2013-09-18 16:41:00,63.9,56.5,29.84,SW,229,0.0,0.0,77,0.00,,---,0.04,VWS V13.01,2013-09-18 21:41:00,
2013-09-18 16:46:00,63.9,56.9,29.84,SW,230,0.0,0.0,78,0.00,,---,0.04,VWS V13.01,2013-09-18 21:46:00,
2013-09-18 16:51:00,63.9,56.9,29.84,SW,229,0.0,0.0,78,0.00,,---,0.04,VWS V13.01,2013-09-18 21:51:00,
2013-09-18 16:56:00,63.9,56.9,29.84,SW,229,0.0,0.0,78,0.00,,---,0.04,VWS V13.01,2013-09-18 21:56:00,
2013-09-18 17:01:00,63.9,56.9,29.84,SW,230,0.0,0.0,78,0.00,,---,0.04,VWS V13.01,2013-09-18 22:01:00,
2013-09-18 17:07:00,64.0,57.0,29.84,SW,229,0.0,0.0,78,0.00,,---,0.04,VWS V13.01,2013-09-18 22:07:00,
2013-09-18 17:12:00,64.0,57.0,29.84,SW,229,0.0,0.0,78,0.00,,---,0.04,VWS V13.01,2013-09-18 22:12:00,
2013-09-18 17:17:00,64.0,57.4,29.84,SW,230,0.0,0.0,79,0.00,,---,0.04,VWS V13.01,2013-09-18 22:17:00,
2013-09-18 17:22:00,64.2,57.6,29.84,SW,229,0.0,0.0,79,0.00,,---,0.04,VWS V13.01,2013-09-18 22:22:00,
2013-09-18 17:28:00,64.2,57.6,29.84,SW,230,0.0,0.0,79,0.00,,---,0.04,VWS V13.01,2013-09-18 22:28:00,
2013-09-18 17:33:00,64.2,57.6,29.84,SW,229,0.0,0.0,79,0.00,,---,0.04,VWS V13.01,2013-09-18 22:33:00,
2013-09-18 17:38:00,64.2,57.6,29.84,SW,229,0.0,0.0,79,0.00,,---,0.04,VWS V13.01,2013-09-18 22:38:00,
2013-09-18 17:43:00,64.2,57.6,29.84,SW,229,0.0,0.0,79,0.00,,---,0.04,VWS V13.01,2013-09-18 22:43:00,
2013-09-18 17:48:00,64.2,57.6,29.84,SW,229,0.0,0.0,79,0.00,,---,0.04,VWS V13.01,2013-09-18 22:48:00,
2013-09-18 17:53:00,64.2,57.6,29.84,SW,229,0.0,0.0,79,0.00,,---,0.04,VWS V13.01,2013-09-18 22:53:00,
2013-09-18 17:58:00,64.2,57.6,29.84,SW,229,0.0,0.0,79,0.00,,---,0.04,VWS V13.01,2013-09-18 22:58:00,
2013-09-18 18:03:00,64.2,57.6,29.84,SW,229,0.0,0.0,79,0.00,,---,0.04,VWS V13.01,2013-09-18 23:03:00,
2013-09-18 18:09:00,64.2,57.6,29.84,SW,229,0.0,0.0,79,0.00,,---,0.04,VWS V13.01,2013-09-18 23:09:00,
2013-09-18 18:14:00,64.2,57.6,29.84,SW,229,0.0,0.0,79,0.00,,---,0.04,VWS V13.01,2013-09-18 23:14:00,
2013-09-18 18:19:00,64.2,57.6,29.84,SSW,201,0.0,0.0,79,0.00,,---,0.04,VWS V13.01,2013-09-18 23:19:00,
2013-09-18 18:24:00,64.2,57.6,29.84,SSW,201,0.0,0.0,79,0.00,,---,0.04,VWS V13.01,2013-09-18 23:24:00,
2013-09-18 18:29:00,64.0,57.4,29.84,SSW,201,0.0,0.0,79,0.00,,---,0.04,VWS V13.01,2013-09-18 23:29:00,
2013-09-18 18:34:00,64.0,57.8,29.84,SSW,201,0.0,0.0,80,0.00,,---,0.04,VWS V13.01,2013-09-18 23:34:00,
2013-09-18 18:39:00,64.0,57.8,29.84,SSW,201,0.0,0.0,80,0.00,,---,0.04,VWS V13.01,2013-09-18 23:39:00,
2013-09-18 18:45:00,64.0,57.8,29.84,SSW,201,0.0,0.0,80,0.00,,---,0.04,VWS V13.01,2013-09-18 23:45:00,
2013-09-18 18:50:00,64.0,57.8,29.84,SSW,201,0.0,0.0,80,0.00,,---,0.04,VWS V13.01,2013-09-18 23:50:00,
2013-09-18 18:55:00,64.0,57.8,29.84,SSW,201,0.0,0.0,80,0.00,,---,0.04,VWS V13.01,2013-09-18 23:55:00,
2013-09-18 19:00:00,63.9,57.6,29.84,SSW,201,0.0,0.0,80,0.00,,---,0.04,VWS V13.01,2013-09-19 00:00:00,
2013-09-18 19:05:00,63.9,57.6,29.84,SSW,201,0.0,0.0,80,0.00,,---,0.04,VWS V13.01,2013-09-19 00:05:00,
2013-09-18 19:10:00,63.9,57.9,29.84,SSW,201,0.0,0.0,81,0.00,,---,0.04,VWS V13.01,2013-09-19 00:10:00,
2013-09-18 19:15:00,63.9,57.9,29.84,SSW,201,0.0,0.0,81,0.00,,---,0.04,VWS V13.01,2013-09-19 00:15:00,
2013-09-18 19:20:00,63.9,57.9,29.84,SSW,201,0.0,0.0,81,0.00,,---,0.04,VWS V13.01,2013-09-19 00:20:00,
2013-09-18 19:25:00,63.9,57.9,29.84,SSW,201,0.0,0.0,81,0.00,,---,0.04,VWS V13.01,2013-09-19 00:25:00,
2013-09-18 19:30:00,63.9,57.9,29.84,SSW,201,0.0,0.0,81,0.00,,---,0.04,VWS V13.01,2013-09-19 00:30:00,
2013-09-18 19:35:00,63.9,57.9,29.84,SSW,201,0.0,0.0,81,0.00,,---,0.04,VWS V13.01,2013-09-19 00:35:00,
2013-09-18 19:40:00,63.7,57.8,29.84,SSW,201,0.0,0.0,81,0.00,,---,0.04,VWS V13.01,2013-09-19 00:40:00,
2013-09-18 19:45:00,63.7,57.8,29.84,SSW,201,0.0,0.0,81,0.00,,---,0.04,VWS V13.01,2013-09-19 00:45:00,
2013-09-18 19:51:00,63.7,58.1,29.84,SSW,201,0.0,0.0,82,0.00,,---,0.04,VWS V13.01,2013-09-19 00:51:00,
2013-09-18 19:56:00,63.7,58.1,29.84,SSW,201,0.0,0.0,82,0.00,,---,0.04,VWS V13.01,2013-09-19 00:56:00,
2013-09-18 20:01:00,63.7,58.1,29.84,SSW,201,0.0,0.0,82,0.00,,---,0.04,VWS V13.01,2013-09-19 01:01:00,
2013-09-18 20:06:00,63.7,58.1,29.84,SSW,201,0.0,0.0,82,0.00,,---,0.04,VWS V13.01,2013-09-19 01:06:00,
2013-09-18 20:11:00,63.7,58.1,29.84,SSW,201,0.0,0.0,82,0.00,,---,0.04,VWS V13.01,2013-09-19 01:11:00,
2013-09-18 20:16:00,63.7,58.1,29.84,SSW,201,0.0,0.0,82,0.00,,---,0.04,VWS V13.01,2013-09-19 01:16:00,
2013-09-18 20:21:00,63.5,57.9,29.84,SSW,201,0.0,0.0,82,0.00,,---,0.04,VWS V13.01,2013-09-19 01:21:00,
2013-09-18 20:26:00,63.5,57.9,29.84,SSW,201,0.0,0.0,82,0.00,,---,0.04,VWS V13.01,2013-09-19 01:26:00,
2013-09-18 20:31:00,63.7,58.1,29.84,SSW,201,0.0,0.0,82,0.00,,---,0.04,VWS V13.01,2013-09-19 01:31:00,
2013-09-18 20:36:00,63.7,58.4,29.84,SSW,201,0.0,0.0,83,0.00,,---,0.04,VWS V13.01,2013-09-19 01:36:00,
2013-09-18 20:41:00,63.7,58.4,29.84,SSW,201,0.0,0.0,83,0.00,,---,0.04,VWS V13.01,2013-09-19 01:41:00,
2013-09-18 20:46:00,63.7,58.4,29.84,SSW,201,0.0,0.0,83,0.00,,---,0.04,VWS V13.01,2013-09-19 01:46:00,
2013-09-18 20:51:00,63.5,58.2,29.84,SSW,201,0.0,0.0,83,0.00,,---,0.04,VWS V13.01,2013-09-19 01:51:00,
2013-09-18 20:56:00,63.5,58.2,29.84,SSW,201,0.0,0.0,83,0.00,,---,0.04,VWS V13.01,2013-09-19 01:56:00,
2013-09-18 21:01:00,63.5,58.2,29.84,SSW,201,0.0,0.0,83,0.00,,---,0.04,VWS V13.01,2013-09-19 02:01:00,
2013-09-18 21:06:00,63.5,58.2,29.84,SSW,201,0.0,0.0,83,0.00,,---,0.04,VWS V13.01,2013-09-19 02:06:00,
2013-09-18 21:11:00,63.5,58.2,29.84,SSW,201,0.0,0.0,83,0.00,,---,0.04,VWS V13.01,2013-09-19 02:11:00,
2013-09-18 21:16:00,63.5,58.2,29.84,SSW,201,0.0,0.0,83,0.00,,---,0.04,VWS V13.01,2013-09-19 02:16:00,
2013-09-18 21:21:00,63.5,58.2,29.84,SSW,201,0.0,0.0,83,0.00,,---,0.04,VWS V13.01,2013-09-19 02:21:00,
2013-09-18 21:26:00,63.5,58.2,29.84,SSW,201,0.0,0.0,83,0.00,,---,0.04,VWS V13.01,2013-09-19 02:26:00,
2013-09-18 21:31:00,63.5,58.2,29.84,SSW,201,0.0,0.0,83,0.00,,---,0.04,VWS V13.01,2013-09-19 02:31:00,
2013-09-18 21:36:00,63.5,58.6,29.84,SSW,201,0.0,0.0,84,0.00,,---,0.04,VWS V13.01,2013-09-19 02:36:00,
2013-09-18 21:41:00,63.5,58.6,29.84,SSW,201,0.0,0.0,84,0.00,,---,0.04,VWS V13.01,2013-09-19 02:41:00,
2013-09-18 21:46:00,63.5,58.6,29.84,SSW,201,0.0,0.0,84,0.00,,---,0.04,VWS V13.01,2013-09-19 02:46:00,
2013-09-18 21:51:00,63.5,58.6,29.84,SSW,201,0.0,0.0,84,0.00,,---,0.04,VWS V13.01,2013-09-19 02:51:00,
2013-09-18 21:56:00,63.5,58.6,29.84,SSW,201,0.0,0.0,84,0.00,,---,0.04,VWS V13.01,2013-09-19 02:56:00,
2013-09-18 22:01:00,63.5,58.6,29.84,SSW,201,0.0,0.0,84,0.00,,---,0.04,VWS V13.01,2013-09-19 03:01:00,
2013-09-18 22:07:00,63.5,58.6,29.84,SSW,201,0.0,0.0,84,0.00,,---,0.04,VWS V13.01,2013-09-19 03:07:00,
2013-09-18 22:12:00,63.5,58.6,29.84,SSW,201,0.0,0.0,84,0.00,,---,0.04,VWS V13.01,2013-09-19 03:12:00,
2013-09-18 22:17:00,63.5,58.6,29.84,SSW,201,0.0,0.0,84,0.00,,---,0.04,VWS V13.01,2013-09-19 03:17:00,
2013-09-18 22:22:00,63.3,58.4,29.84,SSW,201,0.0,0.0,84,0.00,,---,0.04,VWS V13.01,2013-09-19 03:22:00,
2013-09-18 22:27:00,63.5,58.9,29.84,SSW,201,0.0,0.0,85,0.00,,---,0.04,VWS V13.01,2013-09-19 03:27:00,
2013-09-18 22:32:00,63.5,58.9,29.84,SSW,201,0.0,0.0,85,0.00,,---,0.04,VWS V13.01,2013-09-19 03:32:00,
2013-09-18 22:37:00,63.5,58.9,29.84,SSW,201,0.0,0.0,85,0.00,,---,0.04,VWS V13.01,2013-09-19 03:37:00,
2013-09-18 22:42:00,63.7,59.1,29.84,SSW,201,0.0,0.0,85,0.00,,---,0.04,VWS V13.01,2013-09-19 03:42:00,
2013-09-18 22:47:00,63.7,59.1,29.84,SSW,201,0.0,0.0,85,0.00,,---,0.04,VWS V13.01,2013-09-19 03:47:00,
2013-09-18 22:52:00,63.7,59.1,29.84,SSW,201,0.0,0.0,85,0.00,,---,0.04,VWS V13.01,2013-09-19 03:52:00,
2013-09-18 22:57:00,63.7,59.1,29.84,SSW,201,0.0,0.0,85,0.00,,---,0.04,VWS V13.01,2013-09-19 03:57:00,
2013-09-18 23:01:00,63.7,59.1,29.84,SSW,201,0.0,0.0,85,0.00,,---,0.04,VWS V13.01,2013-09-19 04:01:00,
2013-09-18 23:02:00,63.7,59.1,29.84,SSW,201,0.0,0.0,85,0.00,,---,0.04,VWS V13.01,2013-09-19 04:02:00,
2013-09-18 23:07:00,63.7,59.1,29.84,SSW,201,0.0,0.0,85,0.00,,---,0.04,VWS V13.01,2013-09-19 04:07:00,
2013-09-18 23:09:00,63.7,59.1,29.84,SSW,201,0.0,0.0,85,0.00,,---,0.04,VWS V13.01,2013-09-19 04:09:00,
2013-09-18 23:14:00,63.7,59.4,29.84,SSW,201,0.0,0.0,86,0.00,,---,0.04,VWS V13.01,2013-09-19 04:14:00,
2013-09-18 23:19:00,63.7,59.4,29.84,SSW,201,0.0,0.0,86,0.00,,---,0.04,VWS V13.01,2013-09-19 04:19:00,
2013-09-18 23:24:00,63.7,59.4,29.84,SSW,201,0.0,0.0,86,0.00,,---,0.04,VWS V13.01,2013-09-19 04:24:00,
2013-09-18 23:29:00,63.7,59.4,29.81,SSW,201,0.0,0.0,86,0.00,,---,0.04,VWS V13.01,2013-09-19 04:29:00,
2013-09-18 23:35:00,63.7,59.4,29.81,SSW,201,0.0,0.0,86,0.00,,---,0.04,VWS V13.01,2013-09-19 04:35:00,
2013-09-18 23:40:00,63.5,59.2,29.81,SSW,201,0.0,0.0,86,0.00,,---,0.04,VWS V13.01,2013-09-19 04:40:00,
2013-09-18 23:45:00,63.5,59.2,29.81,SSW,201,0.0,0.0,86,0.00,,---,0.04,VWS V13.01,2013-09-19 04:45:00,
2013-09-18 23:50:00,63.5,59.2,29.81,SSW,201,0.0,0.0,86,0.00,,---,0.04,VWS V13.01,2013-09-19 04:50:00,
2013-09-18 23:55:00,63.3,59.1,29.81,SSW,201,0.0,0.0,86,0.00,,---,0.04,VWS V13.01,2013-09-19 04:55:00,